Location: Le Castellard
(44.1862°N, 6.1301°E)
Time: 13:23:05
(UTC+00:00)

SMAP - Pass Details

Date: 18 January 2020
Orbit: 681 x 683 km, 98.1° (Epoch: 17 February)

Event Time Altitude Azimuth Distance (km) Brightness Sun altitude
Rises 05:30:31 0° 19° (NNE) 3,053 6.5 -16.9°
Reaches altitude 10° 05:32:51 10° 25° (NNE) 2,132 5.8 -16.5°
Maximum altitude 05:37:20 46° 99° (E) 920 4.2 -15.7°
Drops below altitude 10° 05:41:47 10° 173° (S) 2,116 5.9 -14.9°
Sets 05:44:05 0° 179° (S) 3,026 6.6 -14.5°
